W5CGC Weather Reports


Display with metric or nautical units.
time (UTC)temp
F
wind
direction
speed
MPH
gust
MPH
rain 1hr
in
rain 24hr
in
rain mn
in
humidity
%
barometer
mb
20170622135320 78 90 0.0 3.0 0.00 0.00 0.00 80 1005.7
20170622133823 76 79 0.0 2.0 0.00 0.00 0.00 81 1005.8
20170622132318 75 75 0.0 2.0 0.00 0.00 0.00 82 1006.0
20170622130824 74 26 0.0 2.0 0.00 0.00 0.00 82 1006.0
20170622125320 74 133 0.0 1.0 0.00 0.00 0.00 82 1005.8
20170622123828 74 5 0.0 1.0 0.00 0.00 0.00 82 1005.9
20170622122334 73 32 0.0 1.0 0.00 0.00 0.00 83 1005.6
20170622120823 73 39 0.0 1.0 0.00 0.00 0.00 82 1005.5
20170622115326 73 320 0.0 1.0 0.00 0.00 0.00 82 1005.4
20170622113820 73 15 0.0 1.0 0.00 0.00 0.00 82 1005.3
20170622112320 73 285 0.0 1.0 0.00 0.00 0.00 82 1005.0
20170622110815 74 334 0.0 4.0 0.00 0.00 0.00 82 1005.0
20170622105322 74 354 0.0 2.0 0.00 0.00 0.00 82 1004.7
20170622103809 73 80 0.0 1.0 0.00 0.00 0.00 82 1005.1
20170622102312 74 72 0.0 2.0 0.00 0.00 0.00 82 1005.6
20170622100804 74 22 0.0 3.0 0.00 0.00 0.00 82 1005.8
20170622095310 74 128 0.0 3.0 0.00 0.00 0.00 81 1006.1
20170622093805 74 19 0.0 4.0 0.00 0.00 0.00 81 1006.0
20170622092305 74 347 0.0 3.0 0.00 0.00 0.00 81 1006.3
20170622090801 75 15 0.0 5.0 0.00 0.00 0.00 81 1006.4
20170622085301 74 349 0.0 3.0 0.00 0.00 0.00 81 1006.6
20170622083800 75 22 0.0 1.0 0.00 0.00 0.00 80 1006.8
20170622082306 75 352 0.0 2.0 0.00 0.00 0.00 80 1006.8
20170622080755 75 23 0.0 1.0 0.00 0.00 0.00 80 1006.7
20170622075255 76 103 0.0 1.0 0.00 0.00 0.00 80 1006.7
20170622073755 76 338 0.0 2.0 0.00 0.00 0.00 79 1007.0
20170622072257 76 16 0.0 0.0 0.00 0.00 0.00 79 1007.0
20170622070749 76 4 0.0 2.0 0.00 0.00 0.00 78 1007.4
20170622065245 77 324 0.0 2.0 0.00 0.00 0.00 78 1007.6
20170622063743 78 76 0.0 3.0 0.00 0.00 0.00 77 1007.6
20170622062242 78 93 0.0 2.0 0.00 0.00 0.00 77 1007.8
20170622060743 78 106 0.0 2.0 0.00 0.00 0.00 77 1008.0
20170622055255 78 329 0.0 1.0 0.00 0.00 0.00 76 1008.0
20170622053741 78 323 0.0 3.0 0.00 0.00 0.00 75 1008.0
20170622052238 79 311 0.0 3.0 0.00 0.00 0.00 74 1008.2
20170622050735 79 75 0.0 2.0 0.00 0.00 0.00 73 1008.3
20170622045231 80 82 0.0 4.0 0.00 0.00 0.00 73 1008.4
20170622043732 80 86 1.0 4.0 0.00 0.00 0.00 72 1008.1
20170622042234 80 74 1.0 4.0 0.00 0.00 0.00 71 1008.2
20170622040735 81 93 1.0 3.0 0.00 0.00 0.00 70 1007.9
20170622035233 81 93 1.0 3.0 0.00 0.00 0.00 69 1007.8
20170622033735 81 96 0.0 4.0 0.00 0.00 0.00 68 1007.4
20170622032231 81 86 1.0 4.0 0.00 0.00 0.00 68 1007.2
20170622030731 81 81 0.0 3.0 0.00 0.00 0.00 67 1006.9
20170622025227 81 75 0.0 3.0 0.00 0.00 0.00 67 1007.2
20170622023726 81 132 0.0 2.0 0.00 0.00 0.00 67 1007.2
20170622022228 82 96 0.0 3.0 0.00 0.00 0.00 67 1007.4
20170622020724 81 83 0.0 2.0 0.00 0.00 0.00 66 1007.4
20170622015231 80 96 0.0 1.0 0.00 0.00 0.00 65 1007.3
20170622013736 82 105 0.0 2.0 0.00 0.00 0.00 63 1007.5
20170622012230 82 99 0.0 3.0 0.00 0.00 0.00 60 1007.7
20170622010727 82 113 1.0 3.0 0.00 0.00 0.00 60 1007.7
20170622005236 83 63 0.0 3.0 0.00 0.00 0.00 59 1007.8
20170622003724 83 85 1.0 2.0 0.00 0.00 0.00 61 1007.9
20170622002230 83 92 0.0 2.0 0.00 0.00 0.00 60 1007.9
20170622000731 83 91 0.0 2.0 0.00 0.00 0.00 60 1007.9
20170621235230 84 105 0.0 2.0 0.00 0.00 0.00 59 1007.9
20170621233727 84 84 0.0 3.0 0.00 0.00 0.00 56 1008.1
20170621232430 85 69 0.0 3.0 0.00 0.00 0.00 54 1008.1
20170621230726 85 91 1.0 4.0 0.00 0.00 0.00 54 1008.3
20170621225225 86 68 1.0 4.0 0.00 0.00 0.00 54 1008.3
20170621223725 88 82 2.0 6.0 0.00 0.00 0.00 52 1008.3
20170621222627 89 77 1.0 4.0 0.00 0.00 0.00 50 1008.5
20170621220726 89 105 1.0 4.0 0.00 0.00 0.00 49 1008.6
20170621215222 89 120 1.0 4.0 0.00 0.00 0.00 48 1008.7
20170621213721 89 100 1.0 4.0 0.00 0.00 0.00 51 1008.9
20170621212622 88 66 1.0 5.0 0.00 0.00 0.00 52 1009.1
20170621210721 89 131 2.0 5.0 0.00 0.00 0.00 51 1009.2
20170621205219 90 66 2.0 5.0 0.00 0.00 0.00 51 1009.4
20170621203724 90 95 1.0 4.0 0.00 0.00 0.00 49 1009.6
20170621202124 90 129 2.0 4.0 0.00 0.00 0.00 44 1009.7
20170621200624 90 98 2.0 4.0 0.00 0.00 0.00 48 1009.7
20170621195124 90 114 2.0 4.0 0.00 0.00 0.00 45 1009.9
20170621193636 90 83 1.0 5.0 0.00 0.00 0.00 46 1010.1
20170621192123 91 113 2.0 5.0 0.00 0.00 0.00 42 1010.2
20170621190621 91 72 2.0 4.0 0.00 0.00 0.00 47 1010.3
20170621185322 92 125 0.0 2.0 0.00 0.00 0.00 50 1010.6
20170621183616 90 101 1.0 4.0 0.00 0.00 0.00 48 1010.8
20170621182117 90 98 1.0 3.0 0.00 0.00 0.00 46 1011.1
20170621180613 90 7 1.0 4.0 0.00 0.00 0.00 49 1011.2
20170621175322 89 84 1.0 3.0 0.00 0.00 0.00 48 1011.4
20170621173616 89 38 1.0 4.0 0.00 0.00 0.00 51 1011.7
20170621172113 88 38 1.0 5.0 0.00 0.00 0.00 49 1011.8
20170621170605 88 26 1.0 4.0 0.00 0.00 0.00 54 1012.0
20170621165303 87 80 0.0 4.0 0.00 0.00 0.00 56 1012.3
20170621163559 87 51 0.0 5.0 0.00 0.00 0.00 59 1012.4
20170621162057 87 44 1.0 4.0 0.00 0.00 0.00 55 1012.4
20170621160600 86 131 1.0 3.0 0.00 0.00 0.00 57 1012.4
20170621155256 85 123 1.0 5.0 0.00 0.00 0.00 56 1012.8
20170621153555 85 74 2.0 4.0 0.00 0.00 0.00 59 1012.9
20170621152051 85 100 1.0 3.0 0.00 0.00 0.00 58 1013.0
20170621150548 85 136 0.0 3.0 0.00 0.00 0.00 64 1013.2
20170621145248 85 88 0.0 1.0 0.00 0.00 0.00 66 1013.5
20170621143544 84 108 0.0 2.0 0.00 0.00 0.00 67 1013.6
20170621142041 83 142 1.0 2.0 0.00 0.00 0.00 69 1013.8
20170621140538 82 83 0.0 2.0 0.00 0.00 0.00 73 1013.7